This is the latest recevied weather packets stored in our database for station/object KD2RHT-13. If no packets are shown the sender has not sent any weather packets the latest 10 day(s).
| Time | Temp. | Humidity | Pressure | Rain* | Wind** | Luminosity | Snow |
|---|---|---|---|---|---|---|---|
| 1777758349 | 8.33° C | 65% | 1015.2 hPa | 0 mm | - | 89 W/m² | - |
| 1777758047 | 8.33° C | 65% | 1015.2 hPa | 0 mm | - | 117 W/m² | - |
| 1777757743 | 8.33° C | 64% | 1014.9 hPa | 0 mm | - | 129 W/m² | - |
| 1777757441 | 8.89° C | 62% | 1014.9 hPa | 0 mm | - | 104 W/m² | - |
| 1777757140 | 9.44° C | 64% | 1014.9 hPa | 0 mm | - | 125 W/m² | - |
| 1777756837 | 9.44° C | 63% | 1014.9 hPa | 0 mm | - | 159 W/m² | - |
| 1777756532 | 9.44° C | 62% | 1014.9 hPa | 0 mm | - | 138 W/m² | - |
| 1777756230 | 8.89° C | 63% | 1014.9 hPa | 0 mm | - | 132 W/m² | - |
| 1777755927 | 8.89° C | 63% | 1014.9 hPa | 0 mm | - | 143 W/m² | - |
| 1777755624 | 8.89° C | 63% | 1015.2 hPa | 0 mm | - | 180 W/m² | - |
| 1777755320 | 8.89° C | 61% | 1015.2 hPa | 0 mm | - | 173 W/m² | - |
| 1777755018 | 8.89° C | 62% | 1015.2 hPa | 0 mm | - | 171 W/m² | - |
| 1777754714 | 8.33° C | 62% | 1015.2 hPa | 0 mm | - | 136 W/m² | - |
| 1777754412 | 8.89° C | 60% | 1014.9 hPa | 0 mm | - | 138 W/m² | - |
| 1777754109 | 9.44° C | 61% | 1014.9 hPa | 0 mm | - | 157 W/m² | - |
| 1777753806 | 9.44° C | 63% | 1014.9 hPa | 0 mm | - | 266 W/m² | - |
| 1777753502 | 9.44° C | 60% | 1014.9 hPa | 0 mm | - | 143 W/m² | - |
| 1777753200 | 9.44° C | 60% | 1015.2 hPa | 0 mm | - | 452 W/m² | - |
| 1777752896 | 9.44° C | 58% | 1014.9 hPa | 0 mm | - | 326 W/m² | - |
| 1777752593 | 8.89° C | 59% | 1014.9 hPa | 0 mm | - | 605 W/m² | - |
| 1777752289 | 8.89° C | 59% | 1015.2 hPa | 0 mm | - | 163 W/m² | - |
| 1777751986 | 9.44° C | 58% | 1015.6 hPa | 0 mm | - | 220 W/m² | - |
| 1777751684 | 8.89° C | 61% | 1015.2 hPa | 0 mm | - | 301 W/m² | - |
| 1777751380 | 8.89° C | 60% | 1015.2 hPa | 0 mm | - | 266 W/m² | - |
| 1777751077 | 8.89° C | 60% | 1015.6 hPa | 0 mm | - | 257 W/m² | - |
* Rain latest hour (hover to see other rain measurements)
** Current wind speed in m/s (hover to see current wind gust speed)